DateTimeUTC,F1_A11,F1_S11,BsB_S11,BsG_S11,BsR_S11,BbsB_S11,BbsG_S11,BbsR_S11,BaB_A11,BaG_A11,BaR_A11,Tu_S11,T_S11,Uu_S11,U_S11,P_S11,T1_A11
2021-06-27T00:00:00Z,00000200,20000000,,,,,,,-000.21,-000.31,0000.09,19.0,26.0,04.0,02.6,0671.3,31.2
2021-06-27T00:01:00Z,00000200,20000000,,,,,,,0000.02,0000.29,-000.26,18.9,26.0,04.0,02.6,0671.3,31.2
2021-06-27T00:02:00Z,00000200,20000000,,,,,,,0000.22,-000.45,0000.02,18.9,26.0,04.0,02.6,0671.3,31.2
2021-06-27T00:03:00Z,00000200,60000000,,,,,,,0000.11,0000.48,-000.02,18.9,26.0,04.0,02.6,0671.3,31.2
2021-06-27T00:04:00Z,00000200,40000000,0000.07,0000.14,-000.11,0000.37,0000.02,0000.14,0000.09,0000.06,0000.22,19.1,25.9,04.2,02.8,0672.2,31.2
2021-06-27T00:05:00Z,00000200,00000000,0000.66,-000.03,-000.30,0000.43,-000.01,0000.14,0000.02,-000.11,-000.07,19.1,25.8,04.2,02.8,0672.2,31.2
2021-06-27T00:06:00Z,00000200,00000000,0000.39,0000.19,-000.21,0000.11,0000.02,-000.12,-000.10,0000.04,0000.14,19.1,25.8,04.2,02.8,0672.2,31.2
2021-06-27T00:07:00Z,00000200,00000000,0000.69,-000.18,0000.15,0000.01,0000.16,0000.34,-000.08,0000.10,0000.23,19.1,25.8,04.2,02.8,0672.2,31.2
2021-06-27T00:08:00Z,00000200,00000000,-000.25,0000.13,-000.08,-000.27,0000.09,0000.41,0000.04,0000.01,-000.30,19.1,25.8,04.3,02.8,0672.2,31.2
2021-06-27T00:09:00Z,00000200,00000000,-000.04,0000.15,-000.20,-000.10,0000.13,0000.00,0000.33,-000.04,0000.30,19.1,25.8,04.3,02.8,0672.2,31.2
2021-06-27T00:10:00Z,00000200,00000000,-000.67,0000.12,0000.24,0000.17,0000.32,0000.06,-000.40,-000.04,-000.33,19.1,25.7,04.3,02.8,0672.2,31.2
2021-06-27T00:11:00Z,00000200,00000000,0000.02,0000.03,0000.19,0000.14,-000.26,0000.08,0000.15,-000.12,0000.09,19.0,25.7,04.4,02.9,0672.2,31.2
2021-06-27T00:12:00Z,00000200,00000000,0000.18,0000.17,0000.29,0000.22,-000.08,0000.18,-000.06,0000.06,-000.00,19.0,25.7,04.4,02.9,0672.2,31.2
2021-06-27T00:13:00Z,00000200,00000000,-000.27,0000.06,-000.16,-000.02,0000.01,-000.20,0000.02,0000.20,0000.15,19.0,25.7,04.4,03.0,0672.2,31.2
2021-06-27T00:14:00Z,00000200,00000000,0000.59,0000.18,-000.24,0000.25,0000.09,-000.26,0000.11,-000.03,-000.11,19.0,25.7,04.4,03.0,0672.2,31.2
2021-06-27T00:15:00Z,00000200,00000000,0000.41,0000.17,0000.01,0000.21,-000.18,-000.18,0000.20,0000.14,-000.05,18.9,25.6,04.5,03.0,0672.1,31.2
2021-06-27T00:16:00Z,00000200,00000000,-000.40,0000.25,-000.14,0000.50,-000.00,-000.04,0000.37,-000.03,0000.40,18.9,25.6,04.4,02.9,0672.1,31.2
2021-06-27T00:17:00Z,00000200,00000000,0000.23,0000.24,0000.12,-000.01,-000.05,0000.06,-000.27,0000.11,-000.22,18.9,25.6,04.7,03.1,0672.1,31.2
2021-06-27T00:18:00Z,00000200,00000000,-000.02,0000.24,0000.18,-000.20,-000.01,0000.25,0000.38,0000.50,0000.24,19.0,25.6,04.6,03.1,0672.1,31.2
2021-06-27T00:19:00Z,00000200,00000000,0000.55,-000.08,-000.12,0000.58,-000.12,0000.21,-000.03,-000.14,-000.23,19.1,25.7,04.6,03.1,0672.1,31.2
2021-06-27T00:20:00Z,00000200,00000000,0000.51,0000.13,-000.17,0000.42,0000.02,-000.11,-000.02,-000.01,0000.50,19.2,25.7,04.6,03.1,0672.1,31.2
2021-06-27T00:21:00Z,00000200,00000000,-000.28,-000.01,-000.08,0000.22,0000.11,-000.08,0000.19,0000.18,0000.03,19.2,25.7,04.7,03.1,0672.1,31.2
2021-06-27T00:22:00Z,00000200,00000000,0000.45,0000.05,-000.17,0000.16,0000.09,0000.17,-000.10,0000.08,-000.11,19.2,25.8,04.6,03.1,0672.1,31.2
2021-06-27T00:23:00Z,00000200,00000000,0000.25,0000.30,-000.04,-000.04,-000.04,0000.30,0000.25,-000.19,0000.21,19.2,25.7,04.7,03.1,0672.1,31.2
2021-06-27T00:24:00Z,00000200,00000000,0000.54,0000.37,-000.11,0000.53,0000.13,0000.13,-000.17,0000.20,-000.39,19.2,25.7,04.7,03.1,0672.1,31.2
2021-06-27T00:25:00Z,00000200,00000000,0000.23,-000.01,0000.11,0000.03,-000.30,0000.04,-000.23,-000.44,-000.12,19.1,25.7,04.6,03.1,0672.1,31.2
2021-06-27T00:26:00Z,00000200,00000000,0000.09,0000.05,0000.01,0000.23,-000.23,0000.01,0000.16,0000.00,-000.18,19.1,25.7,04.6,03.1,0672.1,31.2
2021-06-27T00:27:00Z,00000200,00000000,0000.62,0000.19,0000.12,-000.06,0000.10,0000.25,-000.06,0000.22,0000.37,19.0,25.7,04.7,03.1,0672.1,31.2
2021-06-27T00:28:00Z,00000200,00000000,0000.33,0000.37,-000.18,-000.23,0000.11,0000.08,-000.01,-000.19,0000.14,19.0,25.7,04.7,03.1,0672.1,31.2
2021-06-27T00:29:00Z,00000200,00000000,0000.47,0000.04,-000.15,0000.17,-000.08,-000.07,-000.05,0000.16,-000.08,19.0,25.6,04.6,03.1,0672.1,31.2
2021-06-27T00:30:00Z,00000200,00000000,-000.11,0000.11,-000.14,0000.14,0000.10,0000.36,-000.22,-000.29,-000.27,19.0,25.6,04.6,03.1,0672.1,31.2
2021-06-27T00:31:00Z,00000200,00000000,0000.27,0000.33,-000.10,0000.79,-000.03,0000.22,0000.54,0000.31,0000.22,19.0,25.6,04.7,03.1,0672.1,31.2
2021-06-27T00:32:00Z,00000200,00000000,0000.05,0000.10,-000.19,-000.14,-000.19,-000.09,-000.29,-000.27,-000.18,18.9,25.6,04.7,03.1,0672.1,31.2
2021-06-27T00:33:00Z,00000200,00000000,0000.22,-000.32,-000.05,0000.11,-000.08,-000.05,0000.28,0000.43,0000.17,19.0,25.6,04.6,03.1,0672.1,31.2
2021-06-27T00:34:00Z,00000200,00000000,0000.16,0000.06,-000.26,-000.06,-000.07,0000.10,-000.10,0000.22,0000.22,19.1,25.6,04.5,03.0,0672.1,31.2
2021-06-27T00:35:00Z,00000200,00000000,-000.24,0000.07,0000.25,0000.24,0000.01,0000.12,-000.16,-000.26,-000.32,19.2,25.7,04.6,03.1,0672.1,31.2
2021-06-27T00:36:00Z,00000200,00000000,-000.20,0000.06,0000.23,0000.05,0000.14,0000.29,0000.52,0000.15,0000.45,19.2,25.7,04.4,03.0,0672.1,31.2
2021-06-27T00:37:00Z,00000200,00000000,0000.43,0000.06,-000.11,0000.42,-000.14,-000.08,-000.37,-000.06,-000.26,19.3,25.8,04.4,02.9,0672.1,31.2
2021-06-27T00:38:00Z,00000200,00000000,0000.48,0000.08,0000.20,0000.07,0000.18,0000.14,0000.10,-000.19,-000.20,19.3,25.8,04.4,03.0,0672.1,31.2
2021-06-27T00:39:00Z,00000200,00000000,-000.42,0000.01,0000.15,0000.04,-000.09,0000.37,-000.15,-000.14,-000.03,19.2,25.7,04.4,03.0,0672.1,31.2
2021-06-27T00:40:00Z,00000200,00000000,0000.32,0000.09,0000.26,-000.32,0000.03,0000.04,-000.19,-000.11,-000.10,19.2,25.7,04.4,02.9,0672.1,31.2
2021-06-27T00:41:00Z,00000200,00000000,0000.69,0000.16,0000.29,0000.33,-000.14,0000.18,-000.17,-000.39,-000.29,19.1,25.7,04.5,03.0,0672.1,31.2
2021-06-27T00:42:00Z,00000200,00000000,0000.25,0000.17,-000.23,0000.28,0000.03,-000.13,-000.32,0000.42,0000.17,19.1,25.7,04.4,02.9,0672.1,31.2
2021-06-27T00:43:00Z,00000200,00000000,0000.21,0000.20,0000.05,0000.19,-000.27,0000.17,0000.18,-000.34,0000.13,19.1,25.6,04.3,02.9,0672.1,31.2
2021-06-27T00:44:00Z,00000200,00000000,0000.27,0000.16,-000.20,0000.71,-000.12,0000.09,-000.04,0000.09,-000.06,19.0,25.6,04.2,02.8,0672.1,31.2
2021-06-27T00:45:00Z,00000200,00000000,0000.81,0000.00,-000.06,0000.51,-000.04,-000.05,0000.32,-000.11,-000.21,19.0,25.6,04.4,02.9,0672.1,31.2
2021-06-27T00:46:00Z,00000200,00000000,0000.47,0000.09,-000.22,-000.08,-000.00,-000.25,-000.47,0000.11,0000.41,19.0,25.6,04.2,02.8,0672.1,31.2
2021-06-27T00:47:00Z,00000200,00000000,0000.35,0000.19,0000.01,0000.10,-000.03,0000.06,0000.21,0000.07,0000.17,19.0,25.6,04.3,02.9,0672.1,31.1
2021-06-27T00:48:00Z,00000200,00000000,0000.08,0000.37,-000.14,0000.47,-000.06,-000.02,0000.35,0000.47,-000.06,19.0,25.6,04.3,02.9,0672.1,31.2
2021-06-27T00:49:00Z,00000200,00000000,-000.48,0000.30,0000.10,0000.08,-000.08,0000.32,0000.09,-000.16,0000.19,19.1,25.6,04.2,02.8,0672.1,31.2
2021-06-27T00:50:00Z,00000200,00000000,0000.09,0000.00,-000.02,0000.08,0000.17,0000.12,-000.39,-000.10,-000.09,19.2,25.7,04.2,02.8,0672.1,31.2
2021-06-27T00:51:00Z,00000200,00000000,0000.09,-000.04,-000.10,-000.22,-000.16,0000.20,0000.12,-000.09,0000.11,19.3,25.7,04.1,02.8,0672.1,31.2
2021-06-27T00:52:00Z,00000200,00000000,0000.72,-000.11,-000.12,-000.12,-000.07,0000.18,-000.32,-000.25,-000.50,19.3,25.8,04.0,02.7,0672.1,31.2
2021-06-27T00:53:00Z,00000200,00000000,0000.32,0000.13,-000.00,0000.23,0000.17,0000.03,0000.17,0000.17,-000.10,19.3,25.8,03.8,02.6,0672.1,31.2
2021-06-27T00:54:00Z,00000200,00000000,-000.25,0000.16,0000.13,-000.18,0000.09,0000.35,-000.40,-000.08,-000.12,19.3,25.8,03.9,02.6,0672.1,31.2
2021-06-27T00:55:00Z,00000200,00000000,-000.25,0000.08,0000.10,0000.00,0000.28,0000.15,-000.16,-000.56,0000.01,19.2,25.7,03.8,02.5,0672.1,31.2
2021-06-27T00:56:00Z,00000200,00000000,-000.43,0000.15,0000.04,0000.11,-000.20,-000.04,-000.03,0000.19,-000.27,19.2,25.7,03.8,02.5,0672.1,31.2
2021-06-27T00:57:00Z,00000200,40000000,,,,,,,0000.44,0000.20,0000.49,19.2,25.7,04.2,02.8,0672.1,31.2
2021-06-27T00:58:00Z,00000200,60000000,,,,,,,-000.23,-000.05,0000.01,18.9,25.8,04.0,02.6,0671.1,31.2
2021-06-27T00:59:00Z,00000200,20000000,,,,,,,-000.03,-000.27,-000.27,18.8,25.9,03.9,02.5,0671.0,31.2
